OOV-CUBE (TUBSAT-30)

Last updated on Wed Sep 17 2025 00:03:09 GMT+0000 (Coordinated Universal Time)

1 60240U 24128F 25259.29025558 .00002950 00000+0 23943-3 0 9997 2 60240 61.9946 99.3839 0057971 75.9989 284.7538 15.00797344 64979
UTC large
Height (km)
Speed (km/s)
/
Latitude / Longitude
Inclination (degrees)
Orbital Period (minutes)
Azimuth
Elevation
Range (km)
Doppler Factor

Next 0 passes for location: London (51.5072 / 0.1276)

Sorry there are no passes over London.